Theta_e
308 308 308 308 308 309 309 310 310 311 312 312 313 314 315 316 316 317 315 314 313 311 311 313 314 313 313 311 308 304 306 309 310 310 312 309 312 308 307 308 309 308 308 308 320
308 308 308 308 308 308 308 309 309 310 310 311 312 314 315 316 317 317 317 315 313 311 313 313 312 311 309 312 308 304 305 309 308 307 312 310 311 309 311 310 310 309 307 309 320
312 310 308 308 307 308 308 308 308 309 309 310 312 313 314 316 316 314 311 312 312 312 313 313 312 310 312 311 311 307 307 309 312 312 311 310 311 308 308 310 308 309 307 309 313
312 311 310 309 308 308 308 308 308 308 309 309 311 313 315 317 312 315 311 311 311 311 313 313 310 310 311 312 311 310 310 309 312 312 310 310 308 310 307 310 308 305 306 308 309
309 310 310 309 309 308 308 308 308 308 308 309 310 312 316 313 313 315 311 311 312 314 313 311 310 310 311 313 312 311 311 311 313 312 312 311 312 310 309 308 306 304 305 306 308
309 309 310 310 309 309 308 308 308 308 308 308 310 312 315 311 316 315 312 311 313 313 312 311 310 310 310 311 311 312 312 312 312 312 312 314 312 312 311 305 306 304 304 304 305
315 313 310 310 310 309 309 309 308 308 308 308 309 313 313 309 315 315 312 312 313 313 312 312 312 312 310 312 311 311 312 310 310 312 312 311 311 311 309 306 307 304 303 303 303
318 317 316 312 310 310 309 309 308 308 308 308 310 313 307 312 315 314 312 312 313 313 313 312 312 310 311 309 308 311 309 312 311 311 311 310 310 308 306 306 307 304 302 302 302
321 319 318 317 313 309 308 308 308 308 309 309 312 313 307 311 315 316 313 312 312 312 312 313 310 308 308 309 310 308 311 311 311 309 311 309 310 310 305 305 306 304 302 302 301
323 321 320 318 316 313 310 309 309 309 312 313 314 307 308 310 313 315 313 311 310 309 309 308 306 308 305 309 311 312 312 311 312 312 310 310 308 307 306 305 305 303 302 301 301
322 323 322 321 318 318 317 311 307 308 313 305 307 304 310 312 313 313 311 311 309 307 310 308 309 311 310 308 310 308 311 312 310 311 311 310 309 308 308 305 304 304 303 303 303
319 321 322 322 319 316 317 310 309 312 314 311 310 310 312 312 313 312 311 312 311 311 309 309 310 309 309 308 311 311 312 311 310 310 311 310 310 309 308 306 306 307 306 305 304
316 318 320 321 318 316 316 313 315 314 313 310 312 313 311 311 311 311 309 309 311 310 309 310 312 309 310 310 311 310 310 310 312 311 308 309 310 309 308 306 306 305 306 305 306
309 315 319 319 316 316 316 319 316 313 309 308 309 312 309 309 312 310 310 310 310 312 309 310 310 312 311 311 311 312 309 310 312 313 313 310 313 310 310 309 308 308 306 306 306
306 310 316 318 316 315 316 317 317 312 326 311 310 311 308 309 309 311 308 310 311 311 311 312 311 312 312 312 310 312 310 310 312 311 313 311 313 311 310 311 311 311 309 306 305
307 306 312 316 316 316 316 315 312 317 323 313 313 313 312 311 309 308 310 308 308 311 311 310 309 310 312 310 310 309 311 310 309 310 315 312 312 313 311 312 311 310 310 307 304
306 306 306 311 316 316 314 313 316 319 315 317 314 312 312 312 310 311 311 310 312 314 313 311 311 310 310 312 310 311 313 315 313 313 316 310 312 314 310 310 309 311 309 306 305
304 304 306 306 314 315 313 317 319 317 315 313 314 313 315 312 311 310 310 312 310 310 308 312 311 310 309 312 313 311 313 314 313 312 311 310 314 313 309 308 307 306 306 306 303
303 304 305 306 307 314 315 318 320 315 313 315 316 318 316 315 312 310 310 311 311 309 312 310 311 310 309 310 312 312 314 312 313 297 309 310 309 309 309 309 308 307 306 306 302
302 303 304 305 307 313 316 318 318 312 312 315 318 317 317 315 315 311 310 309 310 310 309 311 312 310 310 310 310 311 310 314 311 313 311 311 312 313 315 311 310 309 309 307 303
301 302 303 305 310 311 314 315 316 312 312 316 317 318 315 315 314 311 313 311 308 309 310 311 313 311 310 310 311 312 313 312 312 311 312 311 313 308 311 311 311 310 309 307 304
301 301 304 307 308 307 310 309 310 315 313 314 316 316 316 313 314 312 313 312 308 309 312 310 312 314 312 308 307 309 311 311 312 311 309 311 316 309 309 308 308 309 309 307 303
297 297 300 306 307 307 306 307 308 311 316 316 316 316 314 317 319 313 312 310 309 311 312 312 316 314 315 312 308 310 309 310 309 306 311 313 316 306 307 306 308 308 307 304 302
298 298 297 301 302 305 305 306 307 308 309 313 317 316 317 317 317 317 314 311 309 311 314 314 316 316 319 315 311 310 309 310 313 315 316 314 315 313 311 310 307 306 304 303 302
300 298 298 299 299 300 304 308 306 307 309 310 312 314 315 317 318 318 316 314 312 311 313 316 316 315 315 312 311 311 311 311 313 314 314 315 314 314 312 310 309 307 306 305 302
299 298 297 297 300 300 300 304 308 309 308 308 311 311 312 315 315 317 317 316 316 311 313 315 318 315 317 315 313 314 311 311 312 313 313 314 314 314 311 309 308 307 308 306 302
294 295 299 298 297 298 301 302 301 302 304 307 308 309 312 313 313 313 311 314 316 316 315 316 315 316 321 316 314 318 316 317 314 313 313 315 314 313 314 312 311 311 306 307 304
Wind_Speed
6 5 5 3 4 3 4 5 5 6 7 9 10 12 13 14 8 1 2 2 2 3 3 2 2 5 4 4 4 3 5 3 6 7 4 5 4 1 1 6 1 2 3 3 18
6 5 4 4 3 3 5 5 6 6 7 9 11 13 14 13 5 2 3 4 3 2 1 3 3 4 4 3 3 5 4 9 5 5 3 4 4 8 5 3 3 3 2 4 22
5 5 4 3 2 3 4 4 5 7 8 9 11 13 14 8 3 2 2 2 2 1 1 2 3 3 3 2 2 2 4 5 3 2 3 5 2 5 7 4 8 10 7 11 18
4 3 4 3 2 1 2 5 7 8 9 10 12 13 9 3 3 2 2 0 1 1 2 3 4 3 2 2 1 3 1 3 1 0 4 5 5 4 6 6 2 8 8 11 11
7 6 4 3 2 1 3 4 6 8 10 11 12 13 3 4 4 2 1 1 1 2 3 3 3 3 4 3 2 2 1 0 1 1 1 3 3 6 7 4 2 4 10 11 10
7 7 6 5 4 3 2 4 6 8 10 12 13 11 2 1 1 2 1 1 3 2 2 3 4 4 5 2 3 2 1 1 2 2 2 2 1 0 4 3 2 6 11 10 12
3 4 6 7 6 5 4 4 5 7 8 9 11 9 2 8 2 2 1 2 2 2 2 3 2 3 3 3 0 2 1 4 2 2 2 3 6 10 2 3 5 8 8 8 12
2 3 4 5 7 7 6 5 5 5 6 8 8 4 5 4 3 2 2 2 2 3 4 3 5 5 4 3 6 4 5 2 2 4 2 4 8 8 3 7 10 9 9 9 10
3 5 4 5 5 6 6 5 6 6 7 5 2 2 7 3 1 4 3 2 3 4 6 5 5 4 4 5 4 6 3 3 7 7 2 4 6 4 1 6 9 9 9 9 9
6 7 6 6 6 6 5 5 6 7 1 1 2 3 2 2 1 1 5 6 4 3 4 6 5 4 3 4 5 6 4 4 4 2 2 4 12 10 5 6 11 9 10 10 12
6 11 11 8 7 8 9 3 3 3 1 5 3 2 1 1 1 1 3 5 3 6 5 3 4 7 13 7 3 5 4 4 4 3 4 8 10 11 8 6 10 11 11 14 16
5 12 11 10 9 7 5 2 1 4 6 8 4 5 6 3 1 3 6 4 3 5 5 4 6 10 5 5 4 3 3 5 5 3 3 8 14 13 7 9 10 16 15 16 12
4 5 11 9 9 5 4 5 2 4 2 6 6 5 6 12 8 8 12 4 4 5 7 8 5 4 7 4 5 4 6 5 7 3 4 5 8 9 7 6 7 10 14 12 17
7 4 3 8 5 5 4 8 7 3 2 6 5 6 4 8 6 6 14 6 3 11 7 6 4 5 4 5 8 7 8 6 4 2 5 1 6 7 6 10 9 14 11 19 19
8 5 4 10 6 6 1 9 7 1 4 1 2 1 1 6 3 1 1 3 8 8 7 8 8 6 6 7 8 6 5 7 3 3 3 3 1 7 2 7 13 14 16 16 14
7 6 2 18 6 3 5 15 8 4 8 2 4 3 4 2 3 3 2 4 4 5 3 4 1 6 7 2 5 8 6 6 4 2 5 10 8 10 6 10 7 10 14 11 8
9 8 5 3 2 9 18 6 2 4 4 4 4 5 5 5 2 2 6 5 7 5 10 2 5 3 3 6 3 2 6 2 3 1 10 2 4 18 4 8 12 14 13 7 5
12 12 10 10 1 19 11 2 7 7 7 3 3 2 6 5 2 2 6 5 7 2 2 10 10 11 7 9 9 9 8 6 8 5 6 3 8 7 10 9 10 8 11 4 5
10 11 8 12 11 21 6 9 7 7 6 6 1 4 4 3 5 4 8 5 7 12 9 6 7 2 3 3 11 7 8 4 1 2 2 6 8 9 11 12 9 12 6 9 8
6 6 7 9 10 13 7 11 5 7 6 4 9 6 8 6 7 8 9 6 6 13 5 4 5 1 2 2 1 6 6 3 2 3 5 6 6 8 5 11 13 10 13 6 6
3 2 5 15 14 3 10 5 8 5 6 7 10 7 8 8 9 7 8 4 7 6 19 7 5 2 1 7 9 3 5 2 4 5 5 3 8 8 13 12 9 10 6 6 8
2 2 4 20 6 3 11 6 9 7 8 9 1 8 11 9 8 8 13 9 8 7 12 9 4 12 12 2 3 3 5 8 5 5 3 3 16 5 9 7 8 9 5 1 4
3 3 4 14 8 11 4 9 11 6 6 4 12 7 3 11 9 9 6 5 8 10 12 7 3 2 7 1 2 5 5 6 5 3 11 6 20 4 4 7 5 7 6 4 3
2 2 3 2 3 5 16 16 8 5 17 12 5 5 6 5 10 6 9 6 11 9 7 11 6 9 12 4 5 6 7 12 13 7 23 12 32 10 4 7 7 9 8 8 6
5 4 4 4 9 11 8 4 15 12 8 8 12 21 14 7 12 16 13 3 4 4 6 8 10 14 21 7 5 7 6 12 20 28 9 32 18 29 16 12 10 10 6 9 9
4 2 1 2 2 7 14 19 16 12 3 7 19 17 19 21 18 3 11 8 6 2 9 8 6 8 17 18 8 7 8 16 22 22 20 29 27 13 9 6 6 12 15 11 10
5 3 1 6 8 4 6 9 18 15 18 14 12 10 13 17 11 11 12 13 10 16 8 9 6 6 13 10 8 9 27 25 19 19 20 21 37 11 21 16 18 15 12 14 11
Wind_Direction
138 127 110 91 82 63 44 33 20 13 3 357 349 348 345 338 336 324 273 272 265 301 307 316 52 27 43 73 60 120 65 169 198 151 231 160 151 132 96 120 204 213 166 287 165
140 132 118 101 64 40 35 22 13 5 358 352 350 349 343 343 356 280 281 280 275 290 331 58 37 27 38 43 27 82 114 213 187 190 205 196 167 168 154 139 246 271 216 176 166
146 144 139 122 83 40 20 12 5 2 356 352 350 347 343 351 39 304 305 270 246 180 89 70 72 55 66 39 18 157 169 189 218 218 188 184 205 178 137 229 217 205 182 164 175
178 168 164 155 141 76 21 6 360 356 354 350 350 349 344 18 199 345 334 118 183 184 124 84 49 63 77 114 34 95 99 172 180 158 137 169 129 200 197 216 336 224 166 169 180
203 205 213 224 213 259 346 359 357 354 350 347 351 352 359 35 260 316 343 114 140 134 99 117 98 120 146 136 88 80 189 279 347 35 102 138 218 226 240 223 352 128 159 185 195
245 238 236 236 253 277 313 339 347 352 350 347 348 355 23 305 243 272 312 134 112 92 85 66 149 157 111 94 100 147 126 352 343 325 313 212 255 60 263 119 128 172 199 200 202
275 282 261 264 265 261 278 313 334 343 345 345 346 1 42 238 239 234 195 137 87 94 107 73 95 80 120 105 220 94 16 336 219 233 248 157 293 239 183 135 202 219 223 227 227
247 296 306 288 283 279 280 289 304 321 330 334 339 4 246 270 249 200 169 120 118 81 97 73 83 99 59 117 24 51 49 25 284 149 301 129 263 269 197 164 226 226 229 235 238
282 285 305 330 309 288 280 288 296 300 307 321 326 70 270 315 251 215 214 166 120 85 69 77 64 81 44 82 18 9 229 199 313 200 133 171 257 267 126 199 244 233 236 237 254
265 275 289 307 331 330 319 304 291 297 317 5 70 30 309 313 335 193 166 154 103 86 38 44 51 73 39 103 217 204 218 247 242 210 186 234 257 271 250 200 244 250 245 242 242
261 270 265 274 302 329 353 325 7 2 100 193 197 224 242 278 126 201 168 117 83 60 154 8 104 207 210 194 128 138 179 222 249 242 184 238 261 260 264 222 250 245 239 240 236
271 251 255 255 266 291 312 301 282 142 305 243 220 263 219 170 235 233 174 145 140 164 116 46 226 230 128 165 175 145 185 248 281 246 198 273 265 262 228 237 215 232 235 237 237
332 294 250 255 230 248 241 221 200 164 236 281 196 193 200 168 212 216 154 146 138 132 187 172 217 124 153 160 165 212 192 220 228 330 244 315 279 253 257 241 255 246 238 239 232
353 339 274 213 187 195 239 230 185 176 323 265 231 259 160 145 246 182 172 142 178 193 167 235 233 152 177 194 157 239 206 174 184 62 251 121 287 281 247 246 233 249 231 238 237
354 348 322 222 166 174 250 185 189 33 264 280 185 354 130 182 143 304 197 65 171 171 140 236 177 178 191 200 168 224 131 160 136 174 323 176 256 251 302 266 258 248 246 240 235
328 339 322 206 184 223 211 157 75 100 228 309 143 154 110 347 30 75 138 48 146 129 274 236 144 169 198 115 159 150 84 58 53 98 278 179 165 261 200 218 259 257 251 246 224
314 306 281 253 206 186 154 123 124 219 328 236 195 169 170 167 108 115 155 179 167 144 225 113 215 188 159 93 53 144 107 305 327 40 241 69 168 251 305 258 225 246 262 266 225
301 301 277 248 359 182 157 183 229 187 217 44 105 113 172 153 178 134 129 204 253 113 98 202 258 164 192 191 165 200 166 172 210 202 264 136 228 249 242 265 265 258 258 227 191
289 304 279 250 223 186 187 221 199 186 193 169 129 158 230 162 164 145 196 215 206 180 192 172 261 221 165 154 157 196 208 240 82 94 359 232 278 293 255 267 264 251 301 259 222
321 307 263 239 202 203 230 242 218 186 167 180 211 188 184 192 170 180 184 210 214 192 162 227 282 101 324 131 25 175 165 79 339 196 249 265 264 227 272 246 254 262 250 264 237
300 298 282 200 159 192 233 214 246 188 187 195 222 208 216 176 194 200 213 240 206 183 190 195 173 231 120 216 168 137 207 175 141 161 193 287 262 214 220 223 226 246 243 218 224
184 223 300 163 182 210 226 205 223 255 219 227 222 253 219 182 197 204 215 218 169 147 170 208 195 245 224 254 253 286 239 167 150 219 242 170 268 159 219 271 234 254 274 212 218
178 230 262 199 215 219 241 233 242 256 201 238 224 212 201 212 222 198 210 208 186 158 165 171 148 292 311 345 327 218 201 187 114 77 226 165 256 328 24 311 258 252 270 270 199
137 241 279 191 296 247 230 243 242 238 239 245 235 262 250 226 222 256 222 223 197 199 185 139 161 195 231 194 137 190 200 191 194 211 243 230 258 261 297 260 291 284 250 258 238
186 219 203 206 232 234 262 262 228 241 223 215 243 243 231 255 244 242 261 276 215 186 178 150 214 215 242 246 176 195 192 200 208 230 204 252 246 255 240 254 256 249 255 231 237
191 183 238 235 190 211 233 244 247 255 241 231 232 249 239 240 230 264 247 229 224 161 175 169 236 191 250 243 209 241 217 218 218 233 239 254 260 270 231 237 243 243 251 256 240
167 208 300 231 218 171 212 239 247 260 267 256 281 294 274 250 261 277 296 286 264 226 205 188 197 188 240 231 189 234 238 239 229 231 223 243 250 245 262 246 246 252 233 243 241